2025-197D

Last updated on Mon Oct 06 2025 00:02:05 GMT+0000 (Coordinated Universal Time)

1 65491U 25197D 25278.52335263 .00010640 00000+0 47308-3 0 9997 2 65491 97.4103 103.8693 0014851 180.6178 179.5042 15.21588337 4556

Satellite not in orbit

2025-197D